This is the latest recevied weather packets stored in our database for station/object LA9TLA-1. If no packets are shown the sender has not sent any weather packets the latest 10 day(s).
| Time | Temp. | Humidity | Pressure | Rain* | Wind** | Luminosity | Snow |
|---|---|---|---|---|---|---|---|
| 1777679868 | 10.56° C | 10% | 1026.9 hPa | 0 mm | - | - | - |
| 1777678068 | 11.11° C | 10% | 1027 hPa | 0 mm | - | - | - |
| 1777676266 | 11.11° C | 10% | 1027.3 hPa | 0 mm | - | - | - |
| 1777674467 | 11.67° C | 10% | 1027.6 hPa | 0 mm | - | - | - |
| 1777672664 | 11.67° C | 10% | 1028 hPa | 0 mm | - | - | - |
| 1777670870 | 12.22° C | 10% | 1028 hPa | 0 mm | - | - | - |
| 1777669065 | 12.78° C | 10% | 1028.5 hPa | 0 mm | - | - | - |
| 1777665464 | 13.89° C | 10% | 1028.5 hPa | 0 mm | - | - | - |
| 1777663666 | 13.89° C | 10% | 1028.6 hPa | 0 mm | - | - | - |
| 1777661866 | 15° C | 10% | 1029 hPa | 0 mm | - | - | - |
| 1777660064 | 15.56° C | 10% | 1029.3 hPa | 0 mm | - | - | - |
| 1777658268 | 15.56° C | 10% | 1029.1 hPa | 0 mm | - | - | - |
| 1777656466 | 16.11° C | 10% | 1029.6 hPa | 0 mm | - | - | - |
| 1777654665 | 18.89° C | 10% | 1029.5 hPa | 0 mm | - | - | - |
| 1777652866 | 18.89° C | 10% | 1029.6 hPa | 0 mm | - | - | - |
| 1777651069 | 18.33° C | 10% | 1029.9 hPa | 0 mm | - | - | - |
| 1777649266 | 18.33° C | 10% | 1030.3 hPa | 0 mm | - | - | - |
| 1777647467 | 18.89° C | 10% | 1030.8 hPa | 0 mm | - | - | - |
| 1777645667 | 18.89° C | 10% | 1031 hPa | 0 mm | - | - | - |
| 1777642064 | 20° C | 10% | 1031.6 hPa | 0 mm | - | - | - |
| 1777640268 | 20° C | 10% | 1032 hPa | 0 mm | - | - | - |
| 1777638468 | 20.56° C | 10% | 1032.3 hPa | 0 mm | - | - | - |
| 1777636666 | 19.44° C | 10% | 1032.4 hPa | 0 mm | - | - | - |
| 1777634867 | 18.89° C | 10% | 1032.8 hPa | 0 mm | - | - | - |
| 1777633065 | 18.89° C | 10% | 1033 hPa | 0 mm | - | - | - |
* Rain latest hour (hover to see other rain measurements)
** Current wind speed in m/s (hover to see current wind gust speed)